Location: Kailua
(21.4020°N, 157.7390°W)
Time: 12:18:36
(UTC-10:00)

Cosmos 2297 Rocket - Visible Passes

Search period start: 20 April 2014 00:00
Search period end: 30 April 2014 00:00
Orbit: 838 x 845 km, 71.0° (Epoch: 18 April)

Date Brightness Start Highest point End Pass type
(mag) Time Alt. Az. Time Alt. Az. Time Alt. Az.
21 Apr 2.6 05:40:13 10° NNW 05:45:52 73° ENE 05:51:28 10° SSE visible
22 Apr 2.6 05:25:15 10° N 05:30:53 68° ENE 05:36:28 10° SSE visible
23 Apr 2.7 05:10:17 10° N 05:15:53 64° ENE 05:21:27 10° SSE visible
23 Apr 5.8 19:55:26 10° WNW 19:56:29 11° WNW 19:57:33 10° NW visible
24 Apr 2.8 04:55:20 10° N 05:00:54 60° ENE 05:06:26 10° SSE visible
24 Apr 5.7 19:39:44 10° W 19:41:28 11° WNW 19:43:12 10° NW visible
25 Apr 2.9 04:40:22 10° N 04:45:54 56° ENE 04:51:24 10° SSE visible
25 Apr 5.6 19:24:15 10° W 19:26:27 12° WNW 19:28:39 10° NW visible
26 Apr 3.0 04:25:25 10° N 04:30:55 52° ENE 04:36:22 10° SSE visible
27 Apr 3.1 04:10:28 10° N 04:15:55 49° ENE 04:21:20 10° SE visible
28 Apr 3.2 03:55:31 10° N 04:00:55 46° ENE 04:06:17 10° SE visible
29 Apr 3.3 03:40:35 10° N 03:45:55 43° ENE 03:51:13 10° SE visible
29 Apr 3.6 05:26:20 10° WNW 05:29:30 15° W 05:32:41 10° SW visible
